Regional Weather Roundup
Issued by NWS

Home | Current Version | Previous Version | Text Only | Print | Product List | Glossary Off
Versions: 1 2 3 4 5 6 7 8 9 10 11 12 13 14 15 16 17 18 19 20 21 22 23 24 25 26 27 28 29 30 31 32 33 34 35 36 37 38 39 40 41 42 43 44 45 46 47 48 49 50

000
ASUS44 KMEG 241700
RWRTN
TENNESSEE HOURLY STATE WEATHER ROUNDUP
NATIONAL WEATHER SERVICE MEMPHIS TN
1200 PM CDT SUN JUL 24 2016

TNZ002-004-019-021-049-052-054-088>092-241800-
WEST TENNESSEE

CITY           SKY/WX    TMP DP  RH WIND       PRES   REMARKS
MEMPHIS INTL   CLOUDY    86  75  69 SW7       30.00F HX  95
NWS MEMPHIS      N/A     83 N/A N/A MISG        N/A
JACKSON        PTSUNNY   87  76  69 W6        30.02S HX  97
DYERSBURG      PTSUNNY  N/A N/A N/A MISG        N/A
PARIS          MOSUNNY   88  73  62 CALM      30.03S HX  96
$$

TNZ008-025-027-028-033-062-065-066-241800-
NORTH MIDDLE TENNESSEE

CITY           SKY/WX    TMP DP  RH WIND       PRES   REMARKS
NASHVILLE      PTSUNNY   92  71  50 VRB5      30.04F HX  98
CLARKSVILLE    MOSUNNY   87  74  64 SW8       30.03F HX  95
COOKEVILLE     MOSUNNY   91  79  66 W5        30.07S HX 107
CROSSVILLE     PTSUNNY   85  71  63 W7        30.13S HX  90
$$

TNZ061-075-076-078-094-096-097-241800-
SOUTH MIDDLE TENNESSEE

CITY           SKY/WX    TMP DP  RH WIND       PRES   REMARKS
$$

TNZ017-018-042-046-047-241800-
NORTHEAST TENNESSEE

CITY           SKY/WX    TMP DP  RH WIND       PRES   REMARKS
TRI CITIES     PTSUNNY   89  68  49 S5        30.10F HX  93
$$

TNZ012-013-036-069-073-074-241800-
CENTRAL EAST TENNESSEE

CITY           SKY/WX    TMP DP  RH WIND       PRES   REMARKS
KNOXVILLE      MOSUNNY   89  71  55 VRB7      30.07S HX  95
OAK RIDGE      SUNNY     86  72  62 VRB5      30.09S HX  92
GATLINBURG       N/A     90  70  51 N5        30.07S HX  95
$$

TNZ083-085-099-241800-
SOUTHEAST TENNESSEE

CITY           SKY/WX    TMP DP  RH WIND       PRES   REMARKS
CHATTANOOGA    PTSUNNY   92  70  48 VRB6      30.06F HX  97
$$

SKY/WX REPORTED AS FAIR MEANS FEW OR NO CLOUDS BELOW
12 THOUSAND FEET.





USA.gov is the U.S. government's official web portal to all federal, state and local government web resources and services.